RH
4 4 4 4 4 5 5 6 9 11 16 20 21 25 21 38 46 43 51 68 74 71 66 41 38 40 38 37 36 36 79 96 68 55 47 36 49 57 57 72 68 62 60 62 58
4 4 5 4 5 6 5 7 10 13 18 21 22 24 26 24 41 33 52 60 65 63 52 40 40 39 37 35 39 50 65 60 40 39 44 42 66 68 59 64 71 73 62 61 62
4 4 5 5 5 6 6 9 12 14 19 21 21 25 30 25 49 32 52 55 54 49 42 39 38 38 38 33 38 44 59 41 39 44 51 68 64 62 60 61 68 84 80 69 66
4 4 5 5 5 6 6 10 13 15 18 22 24 28 33 47 32 34 43 42 41 39 38 38 39 42 40 42 35 52 38 34 38 35 36 66 67 56 57 53 59 67 70 80 82
4 4 5 5 5 6 7 12 13 13 16 22 26 29 33 40 30 31 37 33 31 42 42 41 44 44 47 45 44 49 40 38 35 42 45 46 48 62 58 50 40 47 72 86 72
4 5 5 5 5 5 9 13 15 15 16 21 22 24 36 22 23 27 32 30 31 40 42 44 47 52 50 48 52 43 42 46 49 52 51 48 41 36 36 41 41 40 64 79 89
4 5 5 5 6 5 11 15 17 17 14 15 23 31 48 24 25 30 32 26 29 39 44 51 55 60 55 55 42 44 56 59 54 52 53 49 48 45 36 36 38 40 54 80 78
4 5 5 5 6 6 12 15 16 17 18 18 22 30 31 17 19 31 24 23 25 42 46 52 59 63 62 54 45 49 76 98 89 46 42 41 68 38 34 35 38 57 70 71 74
4 5 5 5 6 7 13 12 12 12 12 16 26 28 20 13 20 29 22 25 25 41 41 47 53 58 51 41 61 96 63 54 51 65 58 53 56 45 45 49 41 58 63 68 67
4 5 5 5 6 6 12 16 18 22 16 25 24 21 17 21 25 19 17 23 38 38 34 46 45 65 45 54 82 65 62 52 48 64 67 68 56 50 60 58 60 63 57 60 60
4 5 5 5 6 7 13 33 34 30 11 24 27 28 18 22 24 17 26 25 36 22 30 34 78 64 49 43 48 52 50 48 44 51 69 56 50 55 69 84 73 69 69 70 69
5 6 6 6 9 9 15 27 24 46 35 22 20 25 23 22 22 16 28 30 35 26 26 44 51 41 39 37 45 50 51 60 44 35 41 59 58 68 74 75 68 77 76 78 78
5 6 7 6 16 23 19 26 32 33 49 20 18 21 22 18 23 21 36 32 33 29 32 51 36 38 38 47 55 60 73 56 58 46 39 39 57 74 71 73 73 84 91 87 88
5 7 7 6 23 28 42 34 33 32 95 23 17 19 19 17 21 18 36 31 35 32 32 43 29 45 46 45 50 83 50 52 54 65 96 52 98 99 95 93 81 87 91 89 99
6 7 7 6 13 17 19 33 43 51 84 21 18 20 19 20 19 21 33 33 44 45 32 38 34 43 56 47 42 63 51 59 61 73 77 97 98 98 97 93 86 93 94 100 99
6 7 8 7 25 13 19 30 48 91 63 26 20 23 20 22 19 21 36 37 41 47 45 40 30 34 44 41 40 46 70 68 65 84 98 94 96 97 99 98 87 96 98 99 97
6 6 8 7 11 11 21 61 96 72 20 30 28 28 23 29 26 26 50 64 81 91 84 57 37 32 41 62 53 61 84 95 95 98 94 88 82 99 97 95 98 100 100 99 100
7 7 8 7 9 11 45 85 71 37 31 24 29 28 28 32 35 32 40 61 57 78 92 88 79 42 40 50 73 67 88 97 96 97 86 68 96 98 98 96 99 99 100 96 97
7 10 14 8 8 28 60 87 66 40 31 37 35 31 29 36 46 53 54 70 59 69 96 95 67 41 42 43 50 85 93 76 98 91 86 87 92 96 71 72 83 94 97 99 99
9 26 27 8 14 42 83 71 47 32 34 37 47 40 42 44 62 62 63 61 65 54 64 83 95 46 47 43 48 56 50 87 93 96 95 96 88 90 88 92 86 90 96 97 100
11 33 31 7 20 36 93 56 38 35 40 45 47 50 41 51 49 60 58 43 51 63 60 90 91 73 54 75 72 83 84 79 82 97 96 91 96 97 96 96 95 95 98 99 99
12 85 17 16 66 80 82 41 32 36 37 37 38 41 46 40 62 61 54 52 48 56 88 84 94 97 68 57 44 53 71 90 97 93 94 92 94 96 97 97 98 96 98 99 99
40 38 12 22 94 88 43 43 39 36 39 37 39 41 37 44 69 45 44 41 48 63 87 83 92 96 80 83 55 73 70 76 82 97 95 96 95 90 94 95 98 97 98 98 99
21 87 30 17 53 48 48 41 52 45 42 39 39 34 52 52 39 54 49 45 50 63 63 66 90 95 97 93 95 92 85 82 82 91 95 96 94 87 86 94 94 97 98 98 98
34 74 48 94 74 56 64 42 40 48 40 40 40 34 44 87 78 68 58 61 57 64 70 84 93 86 75 64 74 87 83 84 93 79 94 93 94 95 94 96 97 98 98 98 97
22 46 51 40 51 70 70 58 35 42 42 41 52 37 37 79 63 77 71 68 75 69 88 80 94 82 88 66 76 93 81 83 85 77 71 76 93 84 96 96 97 98 97 97 97
20 36 40 66 56 82 78 63 54 48 40 36 37 46 48 49 53 49 52 54 58 77 78 88 94 95 94 66 88 96 98 95 90 87 89 89 91 82 87 87 97 98 97 98 97
Wind_Speed
20 22 25 27 26 26 28 26 19 12 10 8 7 5 4 4 5 9 10 14 18 19 19 17 15 14 17 13 12 13 4 6 10 14 17 21 17 18 15 20 31 19 23 23 16
20 23 25 27 26 26 28 23 14 10 9 7 7 9 4 1 5 9 13 16 19 22 18 18 18 17 16 18 8 7 8 15 17 13 17 15 4 16 16 17 17 19 26 21 20
19 22 25 27 26 26 27 19 11 8 7 7 7 9 10 1 8 9 18 19 22 23 18 19 16 18 23 16 14 6 11 16 19 17 19 12 11 9 18 11 12 15 26 20 20
18 22 25 27 26 26 25 14 8 8 6 5 9 5 6 3 4 16 22 24 24 22 16 15 15 20 11 12 12 9 18 18 19 22 20 6 8 8 16 19 14 19 25 16 24
18 22 25 27 26 26 21 10 7 8 5 3 5 9 9 2 11 20 19 22 24 19 14 15 16 18 9 17 17 15 14 18 16 19 20 22 14 13 17 21 15 13 19 19 16
18 22 25 27 25 25 17 7 5 7 7 6 4 5 9 6 15 18 21 24 24 16 15 12 10 14 14 15 11 15 15 18 23 24 23 18 15 20 24 16 17 19 15 16 2
19 22 25 26 22 23 13 6 4 6 8 11 4 6 8 6 17 16 20 27 22 15 15 10 11 8 15 13 11 21 18 15 16 20 10 18 16 17 24 22 20 18 12 4 7
19 22 25 25 20 21 11 7 8 7 6 9 12 7 2 10 22 16 26 34 22 13 10 12 9 13 14 19 22 16 3 6 14 8 7 11 9 12 22 21 20 9 5 5 23
19 23 25 25 20 19 8 5 11 14 5 3 7 5 2 17 31 18 30 34 24 10 10 7 7 10 13 9 5 4 10 15 9 11 5 11 8 6 10 12 17 11 9 8 17
18 22 25 25 19 18 10 5 6 12 8 7 7 1 7 26 24 20 35 30 11 14 14 5 5 5 6 7 8 12 14 11 12 6 6 6 11 1 11 3 5 6 4 10 12
19 22 25 25 18 18 11 8 6 2 15 8 4 2 15 22 12 26 39 23 17 14 5 4 5 9 11 10 8 12 13 11 10 3 3 5 8 5 7 5 6 5 5 7 4
19 22 25 24 16 16 13 4 2 1 2 5 7 4 17 25 11 27 38 17 13 9 14 3 7 13 14 9 12 13 9 8 10 10 7 7 10 9 8 8 2 10 9 10 8
18 22 24 23 13 19 17 8 4 4 3 3 6 8 19 19 7 29 34 16 12 11 12 7 12 13 16 8 13 11 11 11 14 18 14 11 6 9 7 8 13 18 15 15 13
18 21 22 20 10 15 11 6 3 3 1 7 9 9 20 16 3 22 29 12 7 9 10 4 12 14 15 14 15 12 12 13 15 11 4 10 3 6 9 12 16 22 23 26 14
17 20 20 18 9 10 11 3 3 3 2 9 5 9 17 19 12 21 29 9 9 10 4 8 9 11 12 14 15 7 18 12 12 8 4 3 2 5 8 11 17 14 24 28 26
17 19 18 17 15 15 9 3 2 0 3 5 5 12 14 19 12 17 19 27 13 6 10 9 9 5 9 16 7 15 11 10 9 2 1 6 2 9 7 12 17 18 26 33 39
16 18 14 16 10 13 6 5 2 6 5 9 6 10 7 10 10 16 11 21 14 9 9 12 8 6 20 12 9 18 10 4 3 2 1 8 8 7 12 15 13 13 24 28 32
16 16 11 16 15 12 7 1 8 2 4 6 6 13 5 10 7 13 7 8 15 9 3 7 7 14 13 10 9 9 5 3 4 4 2 7 4 4 11 18 21 20 21 30 35
15 12 9 16 13 8 3 6 1 4 3 8 7 4 5 11 9 8 7 6 9 12 5 8 5 12 16 11 12 8 5 5 4 8 3 4 5 5 19 19 31 30 32 33 32
12 7 5 15 10 8 5 4 2 4 4 4 5 6 5 8 7 7 8 2 5 12 4 3 6 8 11 11 10 8 11 4 3 5 3 4 5 8 21 22 23 23 32 38 37
7 1 4 11 7 7 4 3 4 4 5 5 4 4 4 4 4 5 6 2 11 7 7 3 1 9 5 7 10 6 6 5 4 3 3 2 3 8 13 14 16 22 30 33 38
2 0 6 6 7 5 2 3 3 3 3 2 1 3 2 5 3 2 5 4 13 15 5 4 1 5 2 3 11 11 11 6 3 5 4 2 3 8 12 13 17 27 30 35 36
1 1 4 3 3 2 3 4 5 2 4 3 2 3 3 3 2 5 5 7 12 9 6 6 3 5 7 4 7 5 16 13 10 5 7 4 3 11 15 18 23 26 32 36 39
1 2 6 10 7 4 4 3 4 2 3 1 1 3 4 4 2 3 6 5 9 9 10 7 2 2 2 4 3 5 11 11 8 4 6 4 5 16 19 19 24 27 34 34 37
2 2 3 2 4 7 4 2 5 3 1 1 3 2 3 1 3 2 5 6 6 9 8 3 3 5 9 10 5 6 10 12 8 10 5 10 3 12 17 16 23 26 31 35 39
3 5 7 6 8 4 1 1 4 3 2 3 1 4 3 3 3 3 3 2 3 7 3 6 3 6 3 6 1 4 11 12 5 9 6 9 2 16 21 22 18 25 30 31 35
6 9 4 5 3 1 2 4 3 5 1 2 2 3 4 2 7 9 8 12 11 4 5 4 4 4 3 3 1 4 6 5 6 5 6 7 10 22 18 23 17 24 28 31 34
Wind_Direction
10 7 3 0 356 356 354 352 355 2 15 31 35 30 92 82 1 24 12 343 336 335 333 330 327 328 322 298 285 256 236 281 268 278 289 302 329 293 280 267 294 294 296 309 334
6 4 1 357 356 355 353 353 2 18 25 36 26 16 350 322 354 24 347 341 339 336 334 329 323 321 308 308 303 266 262 267 275 298 288 286 326 312 295 295 300 313 292 292 297
3 1 358 355 355 355 354 356 9 27 29 32 20 28 25 38 316 8 345 343 336 334 321 316 311 315 295 309 310 294 273 273 275 291 284 311 313 320 312 284 296 291 300 284 302
360 359 357 354 354 353 353 358 19 17 23 33 35 52 21 15 355 343 337 340 336 330 316 315 319 309 322 304 320 307 288 274 280 278 287 232 267 260 266 284 282 294 307 288 273
359 358 357 354 353 352 354 3 17 15 17 20 56 38 16 324 349 340 332 335 335 326 327 320 313 330 318 310 312 293 287 294 290 295 289 290 250 247 249 260 262 250 288 257 286
358 359 357 354 353 353 355 4 20 25 15 336 301 354 357 40 340 333 334 336 332 324 319 317 322 320 291 301 302 287 297 291 290 276 268 257 260 248 260 260 260 251 248 225 345
356 357 357 354 355 354 358 353 331 1 29 14 345 4 315 359 348 338 340 333 333 310 311 311 309 307 301 303 301 302 288 295 262 249 237 240 247 252 258 250 268 258 242 241 267
355 356 356 355 357 356 359 356 332 311 309 10 22 347 291 8 341 345 347 335 342 318 299 297 294 287 274 269 284 274 354 302 304 213 254 191 255 249 240 239 245 218 176 299 253
353 354 355 357 359 357 2 50 31 17 342 7 16 309 12 328 354 358 340 336 326 307 290 276 284 278 297 335 351 1 331 340 348 297 333 236 255 304 298 260 218 192 176 185 239
350 352 354 358 1 3 349 328 352 22 10 356 353 242 343 341 346 350 338 347 322 295 283 248 229 272 352 347 344 321 317 320 321 10 346 277 264 107 355 244 137 164 175 226 227
347 351 354 358 1 6 10 343 310 98 48 60 21 40 329 337 352 357 350 354 2 334 359 328 21 4 328 317 316 295 294 296 325 294 289 296 269 136 95 33 88 61 14 307 277
345 350 355 357 3 10 28 59 60 112 100 47 19 335 342 339 323 354 352 8 339 342 359 88 22 347 321 344 333 337 331 345 307 325 303 323 298 136 150 154 184 53 357 321 315
344 352 355 356 1 10 22 38 113 117 312 54 15 354 350 348 5 8 3 345 345 345 354 321 18 348 340 9 355 340 333 334 313 315 291 240 256 158 110 36 40 27 355 348 329
342 353 355 360 6 5 343 9 147 127 182 6 2 9 354 351 40 359 360 348 358 336 338 338 10 359 354 358 345 320 337 319 305 316 328 345 132 25 45 20 26 5 352 342 342
343 351 353 1 7 355 341 0 137 106 77 348 9 9 359 33 352 349 2 3 18 321 321 326 347 337 350 332 316 294 313 313 285 278 330 21 199 354 25 6 5 354 349 347 346
343 349 355 5 356 351 352 69 94 54 0 23 18 354 0 15 20 353 32 24 37 320 350 341 290 7 345 322 326 342 333 295 263 238 327 40 30 39 19 359 346 349 351 347 342
343 342 358 5 353 349 3 46 30 66 350 337 340 338 9 358 10 356 26 37 34 359 10 323 16 17 13 347 345 347 344 334 350 6 161 137 70 50 8 4 344 344 349 342 344
338 338 358 7 1 360 37 352 62 247 15 5 336 313 60 30 355 350 18 22 29 21 301 356 343 5 356 354 326 322 331 20 310 347 180 69 72 66 24 5 351 356 352 359 356
335 342 12 2 5 17 17 49 66 25 342 342 301 16 0 23 343 4 48 20 24 20 29 355 302 330 349 328 16 330 14 279 264 229 293 83 17 261 1 1 5 357 358 349 346
333 349 336 -0 21 32 64 104 80 41 355 329 24 24 351 357 15 17 0 21 3 3 88 316 293 295 328 2 11 26 356 343 319 338 340 100 70 357 358 356 352 357 354 341 355
333 325 354 357 24 59 77 73 103 59 24 19 8 349 358 0 345 345 345 97 23 334 352 309 162 302 318 24 351 354 12 349 277 308 307 74 69 9 355 355 347 350 349 347 0
341 37 352 24 42 30 55 68 105 88 53 75 350 332 347 328 357 310 358 56 14 359 5 17 302 282 324 55 30 57 7 349 328 332 294 12 83 360 356 348 346 0 352 358 8
192 83 22 74 89 103 138 92 72 103 46 17 60 18 333 306 1 348 354 41 26 18 8 331 342 321 348 340 25 14 -0 346 303 246 11 359 66 7 357 356 359 2 359 2 9
211 56 43 68 76 113 136 112 120 66 104 27 331 234 30 336 27 306 336 16 7 23 4 337 290 146 265 287 311 347 351 3 342 26 326 35 360 350 356 354 353 1 2 3 8
127 100 93 66 52 96 85 188 134 143 123 322 218 58 29 6 288 347 10 338 337 26 12 46 289 356 293 273 210 43 10 2 30 353 40 323 61 360 349 343 342 3 1 5 5
145 137 96 91 123 123 353 291 139 131 167 153 209 359 337 170 172 245 42 315 309 353 37 342 299 322 289 207 243 98 20 357 31 2 348 336 12 359 337 341 6 10 3 3 359
165 145 122 147 135 179 135 156 140 146 169 59 346 326 300 7 338 299 295 282 286 312 335 339 334 326 290 11 99 107 358 339 340 38 335 14 327 333 338 341 1 16 3 360 353